Location: Borgo
(42.3939°N, 9.2791°E)
Time: 23:39:57
(UTC+00:00)

ISS - Pass Details

Date: 01 May 2021
Orbit: 418 x 421 km, 51.6° (Epoch: 07 May)

Event Time Altitude Azimuth Distance (km) Brightness Sun altitude
Exits shadow 03:04:29 16° 275° (W) 1,174 -1.9 -12.8°
Maximum altitude 03:06:43 35° 335° (NNW) 700 -2.6 -12.5°
Drops below altitude 10° 03:09:52 10° 44° (NE) 1,507 0.5 -12.0°
Sets 03:12:05 0° 53° (NE) 2,374 2.3 -11.6°
